This is the latest recevied weather packets stored in our database for station/object W0VI. If no packets are shown the sender has not sent any weather packets the latest 10 day(s).
| Time | Temp. | Humidity | Pressure | Rain* | Wind** | Luminosity | Snow |
|---|---|---|---|---|---|---|---|
| 1787961080 | 25° C | 66% | 1017.1 hPa | 0 mm | - | 59 W/m² | - |
| 1787960779 | 25° C | 65% | 1017 hPa | 0 mm | - | 64 W/m² | - |
| 1787960474 | 25° C | 64% | 1017.1 hPa | 0 mm | - | 62 W/m² | - |
| 1787960173 | 25° C | 64% | 1017.2 hPa | 0 mm | - | 58 W/m² | - |
| 1787959868 | 25° C | 63% | 1017.1 hPa | 0 mm | - | 65 W/m² | - |
| 1787959563 | 25° C | 63% | 1017.1 hPa | 0 mm | - | 71 W/m² | - |
| 1787959258 | 25° C | 62% | 1017 hPa | 0 mm | - | 75 W/m² | - |
| 1787958952 | 25.56° C | 63% | 1017 hPa | 0 mm | - | 81 W/m² | - |
| 1787958647 | 25.56° C | 62% | 1017.1 hPa | 0 mm | - | 92 W/m² | - |
| 1787958343 | 25.56° C | 62% | 1017.1 hPa | 0 mm | - | 101 W/m² | - |
| 1787958039 | 25.56° C | 62% | 1017.3 hPa | 0 mm | - | 106 W/m² | - |
| 1787957737 | 25.56° C | 61% | 1017.2 hPa | 0 mm | - | 107 W/m² | - |
| 1787957433 | 25.56° C | 62% | 1017.1 hPa | 0 mm | - | 116 W/m² | - |
| 1787957132 | 25.56° C | 61% | 1017.2 hPa | 0 mm | - | 127 W/m² | - |
| 1787956826 | 25.56° C | 60% | 1017.4 hPa | 0 mm | - | 153 W/m² | - |
| 1787956522 | 25.56° C | 61% | 1017.4 hPa | 0 mm | - | 182 W/m² | - |
| 1787956217 | 25.56° C | 61% | 1017.2 hPa | 0 mm | - | 163 W/m² | - |
| 1787955917 | 25.56° C | 62% | 1017.6 hPa | 0 mm | - | 135 W/m² | - |
| 1787955613 | 25.56° C | 61% | 1017.3 hPa | 0 mm | - | 131 W/m² | - |
| 1787955309 | 25.56° C | 60% | 1017.6 hPa | 0 mm | - | 138 W/m² | - |
| 1787955006 | 25.56° C | 60% | 1017.4 hPa | 0 mm | - | 139 W/m² | - |
| 1787954702 | 25.56° C | 59% | 1017.6 hPa | 0 mm | - | 142 W/m² | - |
| 1787954397 | 25.56° C | 59% | 1017.6 hPa | 0 mm | - | 148 W/m² | - |
| 1787954092 | 25.56° C | 58% | 1017.6 hPa | 0 mm | - | 144 W/m² | - |
| 1787953791 | 26.11° C | 57% | 1017.9 hPa | 0 mm | - | 148 W/m² | - |
* Rain latest hour (hover to see other rain measurements)
** Current wind speed in m/s (hover to see current wind gust speed)